Overview Statistics Trail Chart Weather Telemetry Raw packets
 

This is the latest recevied weather packets stored in our database for station/object JE6MIQ-13. If no packets are shown the sender has not sent any weather packets the latest 10 day(s).

<< 33 34 35 36 37 38 39 >>
Time Temp. Humidity Pressure Rain* Wind** Luminosity Snow
1787832652 28.89° C 43% 1003.9 hPa 0 mm - - -
1787831753 28.89° C 43% 1003.3 hPa 0 mm - - -
1787830852 28.89° C 41% 1003.2 hPa 0 mm - - -
1787829951 28.89° C 40% 1002.8 hPa 0 mm - - -
1787829052 29.44° C 39% 1002.4 hPa 0 mm - - -
1787828152 29.44° C 35% 1002.3 hPa 0 mm - - -
1787827253 30° C 33% 1002.1 hPa 0 mm - - -
1787826352 30.56° C 31% 1002.1 hPa 0 mm - - -
1787825453 30.56° C 31% 1001.6 hPa 0 mm - - -
1787824551 30.56° C 29% 1001.7 hPa 0 mm - - -
1787823652 31.11° C 29% 1001.4 hPa 0 mm - - -
1787822752 31.11° C 30% 1001.3 hPa 0 mm - - -
1787821852 31.11° C 29% 1001.1 hPa 0 mm - - -
1787820953 32.22° C 27% 1001 hPa 0 mm - - -
1787820052 33.33° C 27% 1000.7 hPa 0 mm - - -
1787819151 33.89° C 27% 1000.7 hPa 0 mm - - -
1787818251 33.89° C 27% 1000.6 hPa 0 mm - - -
1787817352 34.44° C 27% 1000.7 hPa 0 mm - - -
1787816452 34.44° C 27% 1000.7 hPa 0 mm - - -
1787815551 33.89° C 27% 1000.8 hPa 0 mm - - -
1787814653 33.33° C 27% 1000.7 hPa 0 mm - - -
1787813752 33.33° C 27% 1000.7 hPa 0 mm - - -
1787812852 33.33° C 27% 1000.6 hPa 0 mm - - -
1787811952 33.33° C 27% 1000.8 hPa 0 mm - - -
1787811052 35° C 27% 1000.8 hPa 0 mm - - -

* Rain latest hour (hover to see other rain measurements)
** Current wind speed in m/s (hover to see current wind gust speed)